Location: Lake Sonoma
(38.7200°N, 123.0564°W)
Time: 01:30:35
(UTC-07:00)

Amateur Radio Satellites - All Passes

Search period start: 24 October 2014 01:00
Search period end: 25 October 2014 01:00
Location: Lake Sonoma, 38.7200°N, 123.0564°W

Satellite Date Start Highest point End Downlink Frequencies (MHz)
Time Altitude Azimuth
MaSat-1 24 Oct 01:38:16 01:40:40 15° 304° (WNW) 01:42:58 437.345 MHz
UOSAT-12 24 Oct 01:40:17 01:43:22 18° 251° (WSW) 01:46:25 437.025 FM, 437.400 FM
RS-15 24 Oct 01:47:41 01:56:13 25° 330° (NNW) 02:04:52 29.354 - 29.394 USB, Beacon 29.352 USB
Oscar 19 24 Oct 02:09:04 02:13:38 32° 97° (E) 02:18:11 437.125 CW, 437.150 USB
JAS-1B 24 Oct 02:18:04 02:24:26 41° 100° (E) 02:31:53 435.800 - 435.900 CW/SSB
AO-27 24 Oct 02:25:18 02:28:55 19° 93° (E) 02:32:31 436.795 MHz FM
Oscar 16 24 Oct 02:54:17 02:59:26 88° 284° (WNW) 03:04:33 437.025 USB, Beacon 2401.1428
AO-Echo 24 Oct 02:56:26 03:01:37 51° 100° (E) 03:06:46 ?
Uribyol 2 24 Oct 03:12:18 03:17:27 57° 101° (E) 03:22:32 436.500 FM
PCSat 24 Oct 03:15:50 03:19:17 17° 105° (ESE) 03:22:45 145.825 MHz
ITAMSAT 1 24 Oct 03:18:05 03:23:16 61° 101° (ESE) 03:28:24 435.822 SSB
Gurwin Techsat 1B 24 Oct 03:32:58 03:38:02 44° 99° (E) 03:43:04 435.225 FM
TMSAT-1 24 Oct 03:44:47 03:49:49 42° 98° (E) 03:54:47 436.925 FM
Oscar 19 24 Oct 03:48:33 03:52:51 28° 293° (WNW) 03:57:09 437.125 CW, 437.150 USB
AO-27 24 Oct 04:03:38 04:08:40 49° 289° (WNW) 04:13:41 436.795 MHz FM
RS-15 24 Oct 04:07:49 04:14:18 17° 7° (N) 04:20:53 29.354 - 29.394 USB, Beacon 29.352 USB
JAS-1B 24 Oct 04:09:00 04:14:57 36° 292° (WNW) 04:21:53 435.800 - 435.900 CW/SSB
Sapphire 24 Oct 04:34:04 04:39:28 83° 116° (ESE) 04:44:55 437.095 MHz 1200 baud AX-25 AFSK
AO-Echo 24 Oct 04:36:10 04:39:57 20° 295° (WNW) 04:43:45 ?
Oscar 16 24 Oct 04:37:04 04:37:58 10° 301° (WNW) 04:38:53 437.025 USB, Beacon 2401.1428
Uosat F 24 Oct 04:41:39 04:45:17 20° 94° (E) 04:48:54 435.120 FM
Uribyol 2 24 Oct 04:53:04 04:56:26 18° 297° (WNW) 04:59:46 436.500 FM
PCSat 24 Oct 04:56:50 05:02:09 59° 301° (WNW) 05:07:32 145.825 MHz
JAS-2 24 Oct 04:57:03 04:59:50 12° 85° (E) 05:02:36 435.800 - 435.900 CW/SSB, 435.910 FM
ITAMSAT 1 24 Oct 04:59:01 05:02:14 17° 298° (WNW) 05:05:26 435.822 SSB
Gurwin Techsat 1B 24 Oct 05:13:37 05:17:41 23° 295° (WNW) 05:21:44 435.225 FM
AO-7 24 Oct 05:15:09 05:23:19 56° 103° (ESE) 05:31:27 29.400 - 29.500 MHz
OPAL 24 Oct 05:23:24 05:28:33 75° 72° (ENE) 05:33:39 ?
TMSAT-1 24 Oct 05:25:18 05:29:27 24° 294° (WNW) 05:33:35 436.925 FM
Uosat F 24 Oct 06:19:27 06:24:15 44° 289° (WNW) 06:29:01 435.120 FM
Sapphire 24 Oct 06:20:17 06:23:34 16° 315° (NW) 06:26:53 437.095 MHz 1200 baud AX-25 AFSK
RS-15 24 Oct 06:21:29 06:31:28 36° 41° (NE) 06:41:43 29.354 - 29.394 USB, Beacon 29.352 USB
Hamsat 24 Oct 06:22:38 06:26:15 27° 96° (E) 06:29:51 145.90 MHz
JAS-2 24 Oct 06:38:06 06:45:55 72° 102° (ESE) 06:53:41 435.800 - 435.900 CW/SSB, 435.910 FM
PCSat 24 Oct 06:45:57 06:46:44 10° 321° (NW) 06:47:32 145.825 MHz
OPAL 24 Oct 07:05:59 07:07:53 12° 267° (W) 07:09:47 ?
STRAND 1 24 Oct 07:06:44 07:11:50 74° 75° (ENE) 07:16:59 ?
AO-7 24 Oct 07:08:35 07:15:40 33° 301° (WNW) 07:22:46 29.400 - 29.500 MHz
Saudisat 1A 24 Oct 07:14:51 07:18:06 21° 111° (ESE) 07:21:22 436.775 MHz
Hamsat 24 Oct 07:58:47 08:02:03 22° 291° (WNW) 08:05:19 145.90 MHz
SO-67 24 Oct 08:04:40 08:08:04 53° 100° (E) 08:11:25 435.3500 MHz FM
PANSAT 24 Oct 08:21:39 08:23:38 14° 168° (SSE) 08:25:36 not established
JAS-2 24 Oct 08:24:14 08:30:12 25° 299° (WNW) 08:36:13 435.800 - 435.900 CW/SSB, 435.910 FM
RS-15 24 Oct 08:33:39 08:44:48 74° 244° (WSW) 08:56:28 29.354 - 29.394 USB, Beacon 29.352 USB
HO-68 24 Oct 08:40:10 08:43:24 13° 89° (E) 08:46:37 435.675 MHz FM
STRAND 1 24 Oct 08:49:42 08:51:31 12° 270° (W) 08:53:21 ?
Saudisat 1A 24 Oct 08:53:18 08:57:24 38° 307° (NW) 09:01:32 436.775 MHz
MaSat-1 24 Oct 09:48:28 09:50:59 46° 63° (ENE) 09:53:20 437.345 MHz
PANSAT 24 Oct 10:00:31 10:03:08 18° 181° (S) 10:05:44 not established
Oscar 10/S400 24 Oct 10:05:37 01:00:04 38° 219° (SW) 10:34:59 145.825 - 145.975 CW/USB, Beacon 145.810 USB
Oscar 11 24 Oct 10:11:29 10:14:56 23° 95° (E) 10:18:22 145.825 FM, Beacon 2401.500 USB
HO-68 24 Oct 10:24:45 10:32:00 86° 106° (ESE) 10:39:11 435.675 MHz FM
RS-15 24 Oct 10:49:47 10:55:14 15° 262° (W) 11:00:49 29.354 - 29.394 USB, Beacon 29.352 USB
ZACube-1 24 Oct 10:59:01 11:02:51 32° 97° (E) 11:06:35 437.345 MHz
UKube-1 24 Oct 11:04:50 11:09:13 80° 284° (WNW) 11:13:34 145.840 MHz, 145.915 MHz
KITSAT 1 24 Oct 11:31:25 11:37:47 26° 105° (ESE) 11:44:09 435.175 FM
PANSAT 24 Oct 11:41:03 11:42:36 12° 194° (SSW) 11:44:10 not established
FUNcube-1 24 Oct 11:43:36 11:47:51 75° 284° (WNW) 11:52:00 145.950 - 145.970 MHz USB
Oscar 11 24 Oct 11:47:24 11:51:04 28° 290° (WNW) 11:54:43 145.825 FM, Beacon 2401.500 USB
PCSat 24 Oct 12:04:29 12:07:11 14° 43° (NE) 12:09:52 145.825 MHz
HO-68 24 Oct 12:14:13 12:18:47 18° 304° (NW) 12:23:20 435.675 MHz FM
Oscar 16 24 Oct 12:33:40 12:36:19 14° 62° (ENE) 12:38:57 437.025 USB, Beacon 2401.1428
ZACube-1 24 Oct 12:35:57 12:39:01 20° 293° (WNW) 12:42:02 437.345 MHz
SO-50 24 Oct 12:43:45 12:47:34 28° 113° (ESE) 12:51:30 436.795 FM
JAS-1B 24 Oct 13:04:39 13:09:22 25° 65° (ENE) 13:13:54 435.800 - 435.900 CW/SSB
ISS 24 Oct 13:16:10 13:19:29 82° 140° (SE) 13:22:49 145.800 FM
Sapphire 24 Oct 13:23:30 13:28:46 49° 57° (ENE) 13:34:00 437.095 MHz 1200 baud AX-25 AFSK
KITSAT 1 24 Oct 13:24:32 13:32:32 65° 303° (WNW) 13:40:35 435.175 FM
Oscar 19 24 Oct 13:24:35 13:29:24 42° 71° (ENE) 13:34:13 437.125 CW, 437.150 USB
AO-27 24 Oct 13:42:03 13:46:18 26° 66° (ENE) 13:50:34 436.795 MHz FM
PCSat 24 Oct 13:46:00 13:51:27 82° 62° (ENE) 13:56:52 145.825 MHz
AO-Echo 24 Oct 14:08:06 14:12:50 55° 73° (ENE) 14:17:45 ?
Oscar 16 24 Oct 14:09:54 14:15:03 70° 258° (WSW) 14:20:12 437.025 USB, Beacon 2401.1428
UOSAT-12 24 Oct 14:10:03 14:13:23 20° 110° (ESE) 14:16:46 437.025 FM, 437.400 FM
SO-50 24 Oct 14:24:03 14:28:02 30° 310° (NW) 14:32:08 436.795 FM
AO-7 24 Oct 14:25:27 14:29:22 14° 48° (NE) 14:33:16 29.400 - 29.500 MHz
Uribyol 2 24 Oct 14:28:46 14:33:57 75° 74° (ENE) 14:39:12 436.500 FM
ITAMSAT 1 24 Oct 14:34:42 14:39:54 80° 75° (ENE) 14:45:09 435.822 SSB
Gurwin Techsat 1B 24 Oct 14:52:40 14:57:53 61° 73° (ENE) 15:03:07 435.225 FM
ISS 24 Oct 14:54:13 14:56:32 17° 338° (NNW) 14:58:51 145.800 FM
JAS-1B 24 Oct 14:54:14 14:59:53 39° 261° (W) 15:05:12 435.800 - 435.900 CW/SSB
TMSAT-1 24 Oct 15:04:09 15:09:19 57° 73° (ENE) 15:14:32 436.925 FM
Oscar 19 24 Oct 15:04:58 15:08:52 22° 266° (W) 15:12:47 437.125 CW, 437.150 USB
Sapphire 24 Oct 15:07:46 15:11:48 22° 254° (WSW) 15:15:49 437.095 MHz 1200 baud AX-25 AFSK
AO-27 24 Oct 15:20:49 15:25:36 37° 262° (W) 15:30:26 436.795 MHz FM
KITSAT 1 24 Oct 15:24:34 15:29:39 18° 326° (NW) 15:34:45 435.175 FM
PCSat 24 Oct 15:32:12 15:34:05 12° 258° (WSW) 15:35:58 145.825 MHz
Saudisat 1A 24 Oct 15:42:40 15:45:10 15° 43° (NE) 15:47:39 436.775 MHz
UOSAT-12 24 Oct 15:48:46 15:53:11 44° 307° (NW) 15:57:43 437.025 FM, 437.400 FM
AO-Echo 24 Oct 15:49:11 15:51:59 15° 269° (W) 15:54:50 ?
Uosat F 24 Oct 15:53:40 15:57:40 25° 66° (ENE) 16:01:42 435.120 FM
Uribyol 2 24 Oct 16:12:03 16:13:57 12° 270° (W) 16:15:51 436.500 FM
AO-7 24 Oct 16:12:26 16:20:36 67° 68° (ENE) 16:28:47 29.400 - 29.500 MHz
ITAMSAT 1 24 Oct 16:18:38 16:19:58 11° 270° (W) 16:21:18 435.822 SSB
Gurwin Techsat 1B 24 Oct 16:35:10 16:38:14 15° 269° (W) 16:41:18 435.225 FM
TMSAT-1 24 Oct 16:46:19 16:49:35 16° 268° (W) 16:52:52 436.925 FM
JAS-2 24 Oct 16:50:11 16:54:58 25° 62° (ENE) 17:00:12 435.800 - 435.900 CW/SSB, 435.910 FM
Hamsat 24 Oct 17:15:29 17:18:18 18° 67° (ENE) 17:21:06 145.90 MHz
Saudisat 1A 24 Oct 17:20:48 17:25:13 71° 241° (WSW) 17:29:36 436.775 MHz
Uosat F 24 Oct 17:31:38 17:36:14 36° 262° (W) 17:40:53 435.120 FM
OPAL 24 Oct 17:35:39 17:39:19 20° 96° (E) 17:42:57 ?
AO-7 24 Oct 18:07:27 18:13:54 25° 265° (W) 18:20:25 29.400 - 29.500 MHz
ISS 24 Oct 18:10:19 18:12:14 14° 19° (NNE) 18:14:08 145.800 FM
JAS-2 24 Oct 18:33:55 18:39:32 50° 262° (W) 18:45:57 435.800 - 435.900 CW/SSB, 435.910 FM
SO-67 24 Oct 18:37:15 18:39:12 15° 69° (ENE) 18:41:09 435.3500 MHz FM
Hamsat 24 Oct 18:50:05 18:53:58 36° 262° (W) 18:57:51 145.90 MHz
OPAL 24 Oct 19:13:42 19:18:21 42° 292° (WNW) 19:22:58 ?
STRAND 1 24 Oct 19:19:15 19:23:38 28° 96° (E) 19:27:58 ?
KITSAT 1 24 Oct 19:25:26 19:29:28 14° 29° (NNE) 19:33:30 435.175 FM
ISS 24 Oct 19:46:08 19:49:27 64° 37° (NE) 19:52:46 145.800 FM
SO-67 24 Oct 20:08:56 20:11:55 27° 263° (W) 20:14:55 435.3500 MHz FM
RS-15 24 Oct 20:48:22 20:55:03 18° 99° (E) 21:01:38 29.354 - 29.394 USB, Beacon 29.352 USB
HO-68 24 Oct 20:51:28 20:58:25 57° 69° (ENE) 21:05:24 435.675 MHz FM
STRAND 1 24 Oct 20:58:13 21:02:48 33° 291° (WNW) 21:07:21 ?
Oscar 11 24 Oct 21:06:04 21:08:49 17° 66° (ENE) 21:11:33 145.825 FM, Beacon 2401.500 USB
SO-50 24 Oct 21:16:16 21:20:04 23° 47° (NE) 21:23:54 436.795 FM
KITSAT 1 24 Oct 21:19:14 21:27:04 50° 54° (NE) 21:34:51 435.175 FM
ISS 24 Oct 21:24:19 21:25:45 12° 232° (SW) 21:27:11 145.800 FM
ZACube-1 24 Oct 21:54:12 21:57:55 25° 69° (ENE) 22:01:36 437.345 MHz
UKube-1 24 Oct 21:58:41 22:03:00 74° 75° (ENE) 22:07:22 145.840 MHz, 145.915 MHz
FUNcube-1 24 Oct 22:37:55 22:42:30 74° 76° (ENE) 22:47:02 145.950 - 145.970 MHz USB
Oscar 11 24 Oct 22:40:33 22:44:39 41° 261° (W) 22:48:45 145.825 FM, Beacon 2401.500 USB
UOSAT-12 24 Oct 22:40:36 22:43:27 16° 42° (NE) 22:46:16 437.025 FM, 437.400 FM
HO-68 24 Oct 22:40:42 22:46:26 26° 265° (W) 22:52:13 435.675 MHz FM
RS-15 24 Oct 22:54:38 23:05:41 86° 119° (ESE) 23:16:39 29.354 - 29.394 USB, Beacon 29.352 USB
SO-50 24 Oct 22:56:12 23:00:52 48° 244° (WSW) 23:05:34 436.795 FM
KITSAT 1 24 Oct 23:15:03 23:22:11 36° 252° (WSW) 23:29:18 435.175 FM
MaSat-1 24 Oct 23:23:44 23:27:08 24° 108° (ESE) 23:30:18 437.345 MHz
ZACube-1 24 Oct 23:30:08 23:34:10 30° 264° (W) 23:38:10 437.345 MHz
UOSAT-12 25 Oct 00:19:25 00:24:08 75° 241° (WSW) 00:28:45 437.025 FM, 437.400 FM
